Weather observations for the past three days for
Palmdale, Palmdale Production Flight Plant
Imperial (Metric)
Date Time (pdt) Wind (mph) Vis. (mi.) Weather Sky Cond. Temperature (ºF) Relative Humidity Wind Chill (°F) Heat Index (°F) Pressure Precipitation (in)
Air Dwpt 6 hour altimeter (in) sea level (mb) 1 hr 3 hr 6 hr
Max. Min.
17 03:53 SW 3 10.00 Fair CLR 75.9 48 37% 78 29.99 1011.9
17 02:53 SW 5 10.00 Fair CLR 78.1 48 35% 78 29.99 1011.8
17 01:53 S 3 10.00 Fair CLR 79 48.9 35% 79 29.99 1011.8
17 00:53 W 7 10.00 Fair CLR 80.1 50 35% 80 30 1012.0
16 23:53 SW 7 10.00 Fair CLR 82.9 50 32% 81 30 1011.8
16 22:53 W 9 10.00 Fair CLR 84 50 99 84 31% 82 30 1012.0
16 21:53 W 10 10.00 Fair CLR 84.9 50 30% 83 29.99 1011.9
16 20:53 SW 10 10.00 Fair CLR 87.1 51.1 29% 85 29.99 1011.7
16 19:53 SW 10 10.00 Fair CLR 89.1 52 28% 87 29.98 1011.5
16 18:53 SW 15 10.00 Fair CLR 93 48.9 22% 90 29.96 1011.0
16 17:53 SW 22 10.00 Fair and Breezy CLR 96.1 48 19% 93 29.95 1010.8
16 16:53 SW 20 G 28 10.00 Fair CLR 99 46.9 102.9 95 17% 95 29.96 1010.9
16 15:53 SW 20 10.00 Fair CLR 100 43 14% 96 29.97 1011.0
16 14:53 SW 15 G 24 10.00 Fair CLR 102 37.9 11% 97 29.97 1011.1
16 13:53 SW 12 10.00 Fair CLR 100.9 37 11% 96 29.99 1011.6
16 12:53 S 9 10.00 Fair CLR 100 36 11% 95 30.01 1012.2
16 11:53 SW 10 G 22 10.00 Fair CLR 98.1 43 15% 94 30.02 1012.8
16 10:53 SW 12 10.00 Fair CLR 95 46 95 75 19% 91 30.02 1012.9
16 09:53 SW 9 10.00 Fair CLR 93 46.9 21% 89 30.03 1013.2
16 08:53 SW 7 10.00 Fair CLR 90 48 24% 87 30.03 1013.2
16 07:53 SW 7 10.00 Fair CLR 86 48.9 28% 83 30.02 1013.2
16 06:53 S 9 10.00 Fair CLR 80.1 48.9 34% 79 30.01 1012.8
16 05:53 S 10 10.00 Fair CLR 75.9 50 40% 78 30.01 1012.6
16 04:53 S 8 10.00 Fair CLR 73.9 51.1 84 73.9 45% 30 1012.4
16 03:53 S 9 10.00 Fair CLR 77 51.1 40% 78 30 1012.1
16 02:53 S 10 10.00 Fair CLR 77 52 42% 78 30 1012.1
16 01:53 S 10 10.00 Fair CLR 80.1 51.1 37% 80 30 1012.1
16 00:53 SW 14 10.00 Fair CLR 82.9 50 32% 81 30.01 1012.4
15 23:53 SW 10 10.00 Fair CLR 82 50 33% 81 30.03 1013.0
15 22:53 SW 13 10.00 Fair CLR 84 50 100 84 31% 82 30.02 1013.0
15 21:53 SW 8 10.00 Fair CLR 84.9 50 30% 83 30.02 1012.8
15 20:53 SW 14 10.00 Fair CLR 86 52 31% 84 30 1012.2
15 19:53 W 17 10.00 Fair CLR 88 53.1 30% 86 29.99 1012.1
15 18:53 SW 17 10.00 Fair CLR 93 53.1 26% 91 29.97 1011.5
15 17:53 W 20 10.00 Fair CLR 97 51.1 21% 94 29.96 1010.9
15 16:53 SW 21 10.00 Fair and Breezy CLR 100 48.9 102 95 18% 97 29.96 1010.9
15 15:53 W 14 10.00 Fair CLR 100.9 46.9 16% 97 29.97 1011.3
15 14:53 SW 15 G 23 10.00 Fair CLR 100.9 48.9 17% 98 30 1012.3
15 13:53 SW 9 G 20 10.00 Fair CLR 100 46.9 16% 96 30.02 1013.0
15 12:53 Vrbl 6 10.00 Fair CLR 100 48 17% 97 30.05 1013.7
15 11:53 SW 7 10.00 Fair CLR 97 50 20% 94 30.07 1014.4
15 10:53 Calm 10.00 Fair CLR 93.9 51.1 93.9 73.9 23% 91 30.08 1015.0
15 09:53 Vrbl 3 10.00 Fair CLR 93 51.1 24% 90 30.1 1015.6
15 08:53 Calm 10.00 Fair CLR 87.1 50 28% 84 30.1 1016.0
15 07:53 S 3 10.00 Fair CLR 81 48.9 33% 80 30.11 1016.1
15 06:53 Calm 10.00 Fair CLR 75 50 42% 78 30.1 1015.9
15 05:53 W 7 10.00 Fair CLR 78.1 48 35% 78 30.07 1014.7
15 04:53 S 7 10.00 Fair CLR 75 48 84 75 39% 77 30.07 1014.7
15 03:53 S 8 10.00 Fair CLR 77 48.9 37% 78 30.07 1014.4
15 02:53 S 7 10.00 Fair CLR 77 48.9 37% 78 30.06 1014.3
15 01:53 Calm 10.00 Fair CLR 78.1 48.9 36% 79 30.07 1014.5
15 00:53 S 6 10.00 Fair CLR 79 48.9 35% 79 30.08 1014.8
14 23:53 Calm 10.00 Fair CLR 82 48 31% 81 30.09 1015.2
14 22:53 SW 15 10.00 Fair CLR 84 46 99 82.9 27% 82 30.09 1015.1
14 21:53 W 17 10.00 Fair CLR 82.9 48 30% 81 30.1 1015.8
14 20:53 W 13 10.00 Partly Cloudy SCT110 84.9 48.9 29% 83 30.08 1015.0
14 19:53 W 8 G 21 10.00 A Few Clouds FEW110 90 50 25% 87 30.06 1014.0
14 18:53 SW 17 G 26 10.00 Fair CLR 93 48 21% 90 30.02 1013.0
14 17:53 SW 22 G 35 10.00 Fair and Breezy CLR 96.1 52 23% 93 30.01 1012.7
14 16:53 SW 24 G 35 10.00 Fair and Breezy CLR 99 53.1 102.9 96.1 21% 97 30 1012.3
14 15:53 SW 23 G 31 10.00 Fair and Breezy CLR 100 52 20% 97 30.01 1012.7
14 14:53 SW 24 G 31 10.00 Fair and Breezy CLR 100.9 53.1 20% 99 30.03 1013.1
14 13:53 SW 13 G 24 10.00 Fair CLR 100.9 51.1 19% 98 30.05 1013.7
14 12:53 S 13 G 23 10.00 Fair CLR 102 48.9 17% 99 30.07 1014.3
14 11:53 S 7 10.00 Fair CLR 100 50 18% 97 30.08 1014.9
14 10:53 NW 6 10.00 Fair CLR 97 51.1 97 73.9 21% 94 30.09 1015.3
14 09:53 Calm 10.00 Fair CLR 93 51.1 24% 90 30.1 1015.6
14 08:53 E 6 10.00 Fair CLR 91 50 25% 88 30.1 1015.7
14 07:53 W 17 G 28 10.00 A Few Clouds FEW110 89.1 48.9 25% 86 30.1 1015.4
14 06:53 SW 18 G 29 10.00 Thunderstorm in Vicinity BKN120 84.9 48 28% 83 30.11 1015.8
14 05:53 SW 5 10.00 A Few Clouds FEW120 75.9 45 33% 77 30.08 1015.1
14 04:53 S 7 10.00 Fair CLR 73.9 48 82.9 73 40% 30.07 1014.6
Date Time (pdt) Wind (mph) Vis. (mi.) Weather Sky Cond. Air Dwpt Max. Min. Relative Humidity Wind Chill (°F) Heat Index (°F) altimeter (in) sea level (mb) 1 hr 3 hr 6 hr
6 hour
Temperature (ºF) Pressure Precipitation (in)